FW8740 Weather Reports


Display with metric or nautical units.
time (UTC)temp
F
wind
direction
speed
MPH
gust
MPH
rain 1hr
in
rain 24hr
in
rain mn
in
humidity
%
barometer
mb
20260509152201 57 75 1.0 2.0 0.00 0.02 0.02 87 1015.2
20260509151658 57 103 0.0 0.0 0.00 0.02 0.02 88 1015.6
20260509151155 57 28 1.0 2.0 0.00 0.02 0.02 88 1015.4
20260509150653 57 133 1.0 1.0 0.00 0.02 0.02 89 1015.5
20260509150151 56 107 0.0 1.0 0.00 0.02 0.02 89 1015.3
20260509145647 56 179 1.0 2.0 0.00 0.02 0.02 89 1015.4
20260509145142 56 128 0.0 2.0 0.00 0.02 0.02 90 1015.3
20260509144639 56 150 1.0 1.0 0.00 0.02 0.02 90 1015.1
20260509144136 56 173 1.0 2.0 0.00 0.02 0.02 90 1015.7
20260509143633 56 129 1.0 2.0 0.00 0.02 0.02 90 1015.5
20260509143131 56 118 0.0 1.0 0.00 0.02 0.02 90 1015.4
20260509142626 55 159 1.0 3.0 0.00 0.02 0.02 91 1015.4
20260509142123 56 130 1.0 1.0 0.00 0.02 0.02 91 1015.3
20260509141619 55 134 0.0 2.0 0.00 0.02 0.02 91 1015.2
20260509141115 56 134 1.0 3.0 0.00 0.02 0.02 91 1015.3
20260509140612 56 130 1.0 3.0 0.00 0.02 0.02 91 1015.3
20260509140110 56 226 2.0 2.0 0.00 0.02 0.02 91 1015.3
20260509135607 56 141 0.0 1.0 0.00 0.02 0.02 92 1015.2
20260509135105 55 102 0.0 1.0 0.00 0.02 0.02 92 1015.2
20260509134601 54 141 1.0 2.0 0.00 0.02 0.02 92 1015.5
20260509134059 54 113 0.0 2.0 0.00 0.02 0.02 92 1015.4
20260509133556 53 142 1.0 1.0 0.00 0.02 0.02 92 1015.3
20260509133053 53 128 0.0 2.0 0.00 0.02 0.02 92 1015.3
20260509132552 53 120 1.0 2.0 0.00 0.02 0.02 92 1015.8
20260509132050 53 123 0.0 1.0 0.00 0.02 0.02 93 1016.0
20260509131545 52 122 0.0 3.0 0.00 0.02 0.02 92 1015.3
20260509131042 52 138 0.0 2.0 0.00 0.02 0.02 92 1015.4
20260509130538 51 126 1.0 1.0 0.00 0.02 0.02 92 1015.9
20260509130035 51 99 0.0 1.0 0.00 0.02 0.02 92 1015.7
20260509125531 51 118 0.0 2.0 0.00 0.02 0.02 92 1015.9
20260509125028 51 290 2.0 2.0 0.00 0.02 0.02 92 1015.7
20260509124525 51 130 0.0 2.0 0.00 0.02 0.02 92 1015.5
20260509124022 51 84 1.0 1.0 0.00 0.02 0.02 92 1015.5
20260509123520 50 125 1.0 2.0 0.00 0.02 0.02 92 1015.6
20260509123016 50 155 1.0 2.0 0.00 0.02 0.02 92 1015.7
20260509122512 50 123 1.0 3.0 0.00 0.02 0.02 92 1015.9
20260509122009 50 148 1.0 2.0 0.00 0.02 0.02 92 1015.8
20260509121506 50 146 1.0 2.0 0.00 0.02 0.02 92 1015.7
20260509121004 50 119 1.0 1.0 0.00 0.02 0.02 92 1015.8
20260509120502 50 147 0.0 2.0 0.00 0.02 0.02 92 1015.9
20260509120000 50 128 1.0 1.0 0.00 0.02 0.02 92 1016.1
20260509115456 50 141 1.0 2.0 0.00 0.02 0.02 92 1016.1
20260509114954 50 119 0.0 0.0 0.00 0.02 0.02 92 1016.1
20260509114452 50 122 0.0 1.0 0.00 0.02 0.02 92 1016.1
20260509113951 50 147 0.0 2.0 0.00 0.02 0.02 92 1016.6
20260509113448 50 105 0.0 2.0 0.00 0.02 0.02 92 1016.0
20260509112945 49 117 0.0 1.0 0.00 0.02 0.02 92 1016.1
20260509112443 49 152 2.0 2.0 0.00 0.02 0.02 92 1015.9
20260509111939 49 121 1.0 2.0 0.00 0.02 0.02 92 1016.0
20260509111436 49 132 0.0 2.0 0.00 0.02 0.02 92 1016.1
20260509110934 49 127 0.0 1.0 0.00 0.02 0.02 92 1015.8
20260509110429 49 128 0.0 2.0 0.00 0.02 0.02 92 1016.0
20260509105928 49 127 1.0 2.0 0.00 0.02 0.02 92 1015.7
20260509105426 49 113 0.0 0.0 0.00 0.02 0.02 92 1015.9
20260509104923 49 111 0.0 0.0 0.00 0.02 0.02 92 1015.9
20260509104420 49 111 0.0 0.0 0.00 0.02 0.02 92 1015.7
20260509103917 49 111 0.0 0.0 0.00 0.02 0.02 92 1015.7
20260509103414 49 112 0.0 0.0 0.00 0.02 0.02 92 1015.6
20260509102913 48 111 0.0 0.0 0.00 0.02 0.02 91 1015.3
20260509102410 48 111 0.0 0.0 0.00 0.02 0.02 92 1015.6
20260509101905 48 112 0.0 0.0 0.00 0.02 0.02 91 1015.5
20260509101401 48 112 0.0 0.0 0.00 0.02 0.02 91 1015.5
20260509100859 48 112 0.0 0.0 0.00 0.02 0.02 91 1015.4
20260509100356 48 112 0.0 0.0 0.00 0.02 0.02 91 1015.4
20260509095853 48 109 0.0 0.0 0.00 0.02 0.02 91 1015.6
20260509095350 48 108 0.0 0.0 0.00 0.02 0.02 91 1015.6
20260509094847 48 101 0.0 0.0 0.00 0.02 0.02 91 1015.6
20260509094344 48 94 0.0 0.0 0.00 0.02 0.02 91 1015.6
20260509093842 48 93 0.0 1.0 0.00 0.02 0.02 91 1015.4
20260509093338 48 104 0.0 0.0 0.00 0.02 0.02 91 1015.4
20260509092837 48 93 0.0 0.0 0.00 0.02 0.02 91 1015.3
20260509092335 48 92 0.0 1.0 0.00 0.02 0.02 91 1015.4
20260509091832 48 110 0.0 0.0 0.00 0.02 0.02 91 1015.7
20260509091329 48 115 0.0 0.0 0.00 0.02 0.02 91 1015.5
20260509090826 48 115 0.0 0.0 0.00 0.02 0.02 91 1015.5
20260509090324 48 116 0.0 0.0 0.00 0.02 0.02 91 1015.6
20260509085821 48 111 0.0 0.0 0.00 0.02 0.02 91 1015.4
20260509085318 48 111 0.0 0.0 0.00 0.02 0.02 91 1015.6
20260509084814 48 111 0.0 0.0 0.00 0.02 0.02 91 1015.5
20260509084311 48 111 0.0 0.0 0.00 0.02 0.02 91 1015.6
20260509083809 48 112 0.0 0.0 0.00 0.02 0.02 91 1015.5
20260509083306 48 112 0.0 1.0 0.00 0.02 0.02 90 1015.4
20260509082802 48 112 0.0 0.0 0.00 0.02 0.02 90 1015.7
20260509082259 48 111 0.0 0.0 0.00 0.02 0.02 90 1015.8
20260509081756 48 112 1.0 1.0 0.00 0.02 0.02 90 1015.7
20260509081253 48 111 0.0 1.0 0.00 0.02 0.02 90 1015.8
20260509080752 48 105 0.0 0.0 0.00 0.02 0.02 90 1015.7
20260509080249 48 103 0.0 0.0 0.00 0.02 0.02 90 1015.7
20260509075747 48 105 0.0 0.0 0.00 0.02 0.02 90 1015.7
20260509075244 48 104 0.0 0.0 0.00 0.02 0.02 90 1015.7
20260509074741 48 104 0.0 0.0 0.00 0.02 0.02 90 1015.5
20260509074239 48 103 0.0 0.0 0.00 0.02 0.02 90 1015.7
20260509073734 48 108 0.0 0.0 0.00 0.02 0.02 89 1015.8
20260509073231 48 108 0.0 0.0 0.00 0.02 0.02 89 1015.8
20260509072728 48 105 0.0 0.0 0.00 0.02 0.02 89 1015.8
20260509072225 48 104 0.0 0.0 0.07 0.02 0.02 89 1015.4
20260509071721 48 104 0.0 0.0 0.00 0.01 0.01 89 1015.3
20260509071219 47 104 0.0 0.0 0.00 0.01 0.01 89 1015.6
20260509070716 48 105 0.0 0.0 0.00 0.01 0.01 89 1015.3
20260509070212 48 104 0.0 0.0 0.00 0.01 0.01 89 1015.6
20260509065708 48 107 0.0 0.0 0.00 0.01 0.01 88 1015.7
20260509065204 47 108 0.0 0.0 0.00 0.01 0.01 88 1015.4
20260509064701 47 108 0.0 0.0 0.00 0.01 0.01 88 1015.5
20260509064159 47 107 0.0 0.0 0.00 0.01 0.01 88 1015.7
20260509063656 47 115 0.0 1.0 0.00 0.01 0.01 88 1015.4
20260509063152 47 97 0.0 0.0 0.00 0.01 0.01 88 1015.7
20260509062649 47 94 0.0 1.0 0.00 0.01 0.01 88 1015.5
20260509062146 48 108 0.0 1.0 0.00 0.01 0.01 88 1015.8
20260509061643 47 105 0.0 0.0 0.00 0.01 0.01 87 1015.9
20260509061141 48 97 0.0 1.0 0.00 0.01 0.01 87 1015.9
20260509060638 47 99 0.0 0.0 0.00 0.01 0.01 87 1016.1
20260509060134 47 83 0.0 0.0 0.05 0.01 0.01 87 1016.1
20260509055630 47 83 0.0 0.0 0.05 0.01 0.01 87 1016.2
20260509055126 47 83 0.0 1.0 0.00 0.00 0.00 87 1016.3
20260509054623 47 82 1.0 1.0 0.00 0.00 0.00 87 1016.2
20260509054120 47 97 0.0 0.0 0.00 0.00 0.00 86 1016.0
20260509053619 47 97 0.0 0.0 0.00 0.00 0.00 86 1016.1
20260509053115 47 97 0.0 0.0 0.00 0.00 0.00 86 1016.0
20260509052613 47 97 0.0 0.0 0.00 0.00 0.00 86 1016.2
20260509052111 47 96 0.0 1.0 0.00 0.00 0.00 86 1016.4
20260509051608 47 110 0.0 0.0 0.00 0.00 0.00 86 1016.6
20260509051105 47 111 0.0 1.0 0.00 0.00 0.00 86 1015.8
20260509050602 47 111 0.0 0.0 0.00 0.00 0.00 86 1016.1
20260509050058 47 105 0.0 0.0 0.00 0.00 0.00 85 1016.0
20260509045556 47 104 0.0 0.0 0.00 0.00 0.00 85 1016.0
20260509045053 47 104 0.0 0.0 0.00 0.00 0.00 85 1016.0
20260509044550 47 104 0.0 0.0 0.00 0.00 0.00 84 1016.1
20260509044048 47 104 0.0 0.0 0.00 0.00 0.00 84 1016.0
20260509043544 47 104 0.0 0.0 0.00 0.00 0.00 84 1016.1
20260509043039 47 104 0.0 0.0 0.00 0.00 0.00 83 1016.0
20260509042536 48 104 0.0 0.0 0.00 0.00 0.00 83 1016.6
20260509042032 48 110 0.0 0.0 0.00 0.00 0.00 82 1016.1
20260509041529 49 111 0.0 0.0 0.00 0.00 0.00 82 1016.2
20260509041027 50 111 0.0 0.0 0.00 0.00 0.00 81 1016.3
20260509040525 50 111 0.0 0.0 0.00 0.00 0.00 81 1016.3
20260509040021 51 111 0.0 0.0 0.00 0.03 0.03 80 1016.4
20260509035518 51 111 0.0 0.0 0.00 0.03 0.03 80 1016.6
20260509035015 51 111 0.0 0.0 0.00 0.03 0.03 79 1016.3
20260509034513 51 105 0.0 0.0 0.00 0.03 0.03 79 1016.6
20260509034010 51 83 0.0 0.0 0.00 0.03 0.03 79 1016.7
20260509033507 51 83 0.0 1.0 0.00 0.03 0.03 80 1016.3
20260509033004 51 128 0.0 0.0 0.00 0.03 0.03 80 1016.6
20260509032501 51 128 0.0 1.0 0.00 0.03 0.03 80 1016.3
20260509031958 52 128 0.0 0.0 0.00 0.03 0.03 80 1016.2
20260509031455 51 148 1.0 1.0 0.00 0.03 0.03 81 1016.4
20260509030953 51 120 0.0 1.0 0.00 0.03 0.03 82 1016.3
20260509030450 51 120 0.0 0.0 0.00 0.03 0.03 82 1016.4
20260509025947 51 126 0.0 1.0 0.00 0.03 0.03 82 1016.7
20260509025443 50 120 0.0 0.0 0.00 0.03 0.03 83 1016.3
20260509024938 50 120 0.0 1.0 0.00 0.03 0.03 83 1016.6
20260509024435 50 120 0.0 0.0 0.00 0.03 0.03 83 1016.1
20260509023932 49 120 0.0 0.0 0.00 0.03 0.03 83 1016.2
20260509023429 50 121 0.0 0.0 0.00 0.03 0.03 82 1016.2
20260509022926 49 121 0.0 0.0 0.00 0.03 0.03 82 1015.9
20260509022423 49 121 0.0 0.0 0.00 0.03 0.03 82 1016.2
20260509021920 50 121 0.0 0.0 0.00 0.03 0.03 82 1016.0
20260509021417 50 122 0.0 1.0 0.00 0.03 0.03 81 1016.2
20260509020915 50 112 0.0 1.0 0.00 0.03 0.03 81 1016.0
20260509020413 50 112 0.0 1.0 0.00 0.03 0.03 80 1015.8
20260509015909 50 105 0.0 0.0 0.00 0.03 0.03 80 1015.8
20260509015408 50 105 0.0 0.0 0.00 0.03 0.03 79 1015.8
20260509014904 50 104 0.0 0.0 0.00 0.03 0.03 79 1015.9
20260509014401 50 105 0.0 0.0 0.00 0.03 0.03 79 1015.8
20260509013857 50 105 0.0 0.0 0.00 0.03 0.03 78 1015.6
20260509013354 50 105 0.0 0.0 0.00 0.03 0.03 78 1015.5
20260509012850 50 111 0.0 0.0 0.00 0.03 0.03 78 1015.4
20260509012347 50 111 0.0 0.0 0.00 0.03 0.03 78 1015.2
20260509011844 49 111 0.0 0.0 0.00 0.03 0.03 78 1015.3
20260509011342 49 82 0.0 1.0 0.00 0.03 0.03 78 1015.3
20260509010839 49 104 0.0 1.0 0.00 0.03 0.03 77 1015.1
20260509010337 49 105 0.0 0.0 0.00 0.03 0.03 77 1015.2
20260509005833 50 105 0.0 0.0 0.00 0.03 0.03 76 1015.3
20260509005331 50 115 0.0 0.0 0.00 0.03 0.03 76 1015.1
20260509004831 50 116 0.0 0.0 0.00 0.03 0.03 75 1015.3
20260509004328 50 116 0.0 0.0 0.00 0.03 0.03 74 1015.1
20260509003826 50 116 0.0 0.0 0.00 0.03 0.03 73 1015.0
20260509003323 50 116 0.0 0.0 0.00 0.03 0.03 73 1014.7
20260509002820 50 116 0.0 0.0 0.00 0.03 0.03 72 1014.6
20260509002318 50 116 0.0 0.0 0.00 0.03 0.03 72 1014.7
20260509001816 51 116 0.0 0.0 0.00 0.03 0.03 71 1014.7
20260509001311 51 116 0.0 0.0 0.00 0.03 0.03 70 1014.8
20260509000809 51 116 0.0 0.0 0.00 0.03 0.03 70 1014.7
20260509000306 52 116 0.0 0.0 0.00 0.03 0.03 69 1014.9
20260508235757 52 116 0.0 0.0 0.00 0.03 0.03 68 1014.7
20260508235254 53 116 0.0 0.0 0.00 0.03 0.03 68 1014.7
20260508234751 54 116 0.0 0.0 0.00 0.03 0.03 67 1014.6
20260508234247 54 77 0.0 0.0 0.00 0.03 0.03 66 1014.6
20260508233746 55 116 0.0 0.0 0.00 0.03 0.03 65 1014.5
20260508233245 55 126 0.0 1.0 0.00 0.03 0.03 63 1014.6
20260508232742 55 106 0.0 1.0 0.00 0.03 0.03 64 1014.7
20260508232238 55 89 1.0 1.0 0.00 0.03 0.03 63 1014.6
20260508231736 56 96 0.0 1.0 0.00 0.03 0.03 63 1014.6
20260508231232 55 304 3.0 3.0 0.00 0.03 0.03 63 1014.5
20260508230730 56 102 0.0 2.0 0.00 0.03 0.03 63 1014.7
20260508230225 56 121 1.0 2.0 0.00 0.03 0.03 63 1014.2
20260508225724 56 88 0.0 2.0 0.00 0.03 0.03 63 1014.2
20260508225220 56 272 3.0 3.0 0.00 0.03 0.03 63 1014.4
20260508224718 56 96 0.0 1.0 0.00 0.03 0.03 64 1014.2
20260508224215 56 92 0.0 1.0 0.00 0.03 0.03 63 1014.3
20260508223712 56 92 0.0 1.0 0.00 0.03 0.03 63 1014.0
20260508223210 56 43 1.0 2.0 0.00 0.03 0.03 63 1014.2
20260508222707 56 92 1.0 1.0 0.00 0.03 0.03 63 1014.2
20260508222204 56 84 1.0 2.0 0.00 0.03 0.03 63 1014.1
20260508221700 56 96 0.0 5.0 0.00 0.03 0.03 63 1014.2
20260508221156 57 77 1.0 2.0 0.00 0.03 0.03 63 1014.2
20260508220653 57 307 2.0 3.0 0.00 0.03 0.03 63 1014.2
20260508220149 56 316 2.0 9.0 0.00 0.03 0.03 63 1014.1
20260508215646 56 87 0.0 6.0 0.00 0.03 0.03 63 1014.2
20260508215143 56 205 1.0 8.0 0.00 0.03 0.03 63 1014.3
20260508214640 56 117 0.0 6.0 0.00 0.03 0.03 64 1014.1
20260508214137 56 272 2.0 7.0 0.00 0.03 0.03 63 1014.3
20260508213634 56 338 4.0 5.0 0.00 0.03 0.03 65 1014.5
20260508213130 56 318 4.0 5.0 0.00 0.03 0.03 64 1014.7
20260508212626 56 81 1.0 2.0 0.00 0.03 0.03 64 1014.6
20260508212123 55 51 1.0 5.0 0.00 0.03 0.03 64 1014.6
20260508211618 55 77 1.0 7.0 0.00 0.03 0.03 64 1014.8
20260508211115 55 308 1.0 6.0 0.00 0.03 0.03 63 1014.6
20260508210611 55 68 1.0 3.0 0.00 0.03 0.03 64 1014.5
20260508210109 55 328 2.0 3.0 0.00 0.03 0.03 64 1014.7
20260508205606 55 281 4.0 6.0 0.00 0.03 0.03 63 1014.8
20260508205102 55 38 3.0 3.0 0.00 0.03 0.03 63 1014.5
20260508204559 55 56 1.0 6.0 0.00 0.03 0.03 62 1014.7
20260508204055 55 94 2.0 3.0 0.00 0.03 0.03 62 1014.6
20260508203551 57 280 2.0 5.0 0.00 0.03 0.03 61 1014.4
20260508203047 57 92 1.0 6.0 0.00 0.03 0.03 62 1014.3
20260508202544 57 9 2.0 6.0 0.00 0.03 0.03 61 1014.3
20260508202041 57 356 1.0 3.0 0.00 0.03 0.03 62 1014.4
20260508201538 59 259 5.0 7.0 0.00 0.03 0.03 63 1014.3
20260508201034 57 343 3.0 5.0 0.00 0.03 0.03 64 1014.6
20260508200531 57 45 2.0 3.0 0.00 0.03 0.03 65 1014.3
20260508200027 56 61 4.0 8.0 0.00 0.03 0.03 66 1014.4
20260508195524 56 345 3.0 5.0 0.00 0.03 0.03 68 1014.4
20260508195020 55 318 2.0 5.0 0.00 0.03 0.03 70 1014.5
20260508194517 55 350 1.0 5.0 0.00 0.03 0.03 71 1014.9
20260508194015 55 62 3.0 5.0 0.00 0.03 0.03 73 1014.6
20260508193511 53 326 4.0 6.0 0.00 0.03 0.03 73 1014.9
20260508193008 53 85 1.0 1.0 0.00 0.03 0.03 74 1014.8
20260508192504 52 11 1.0 3.0 0.00 0.03 0.03 72 1014.6
20260508192001 51 21 3.0 5.0 0.00 0.03 0.03 70 1015.2
20260508191458 53 340 4.0 7.0 0.00 0.03 0.03 67 1015.2
20260508190954 55 200 5.0 7.0 0.00 0.03 0.03 62 1015.3
20260508190447 56 352 3.0 9.0 0.00 0.03 0.03 58 1015.1
20260508185942 56 109 4.0 8.0 0.00 0.03 0.03 56 1014.8
20260508185440 57 42 6.0 8.0 0.00 0.03 0.03 55 1014.6
20260508184937 58 352 2.0 7.0 0.00 0.03 0.03 54 1014.7
20260508184435 59 86 1.0 6.0 0.00 0.03 0.03 55 1014.2
20260508183931 58 325 3.0 8.0 0.00 0.03 0.03 54 1014.4
20260508183428 58 357 2.0 7.0 0.00 0.03 0.03 55 1014.4
20260508182923 57 65 2.0 3.0 0.00 0.03 0.03 57 1014.4
20260508182421 56 21 2.0 5.0 0.00 0.03 0.03 57 1014.3
20260508181920 56 184 2.0 5.0 0.00 0.03 0.03 58 1014.5
20260508181418 55 358 1.0 14.0 0.00 0.03 0.03 59 1014.5
20260508180915 56 39 3.0 11.0 0.00 0.03 0.03 56 1014.6
20260508180412 56 15 1.0 2.0 0.00 0.03 0.03 55 1014.4
20260508175908 57 18 2.0 6.0 0.00 0.03 0.03 54 1014.3
20260508175405 57 28 4.0 6.0 0.00 0.03 0.03 52 1014.2
20260508174903 58 62 2.0 6.0 0.00 0.03 0.03 50 1014.3
20260508174400 60 335 2.0 5.0 0.00 0.03 0.03 51 1014.0
20260508173856 60 78 1.0 6.0 0.00 0.03 0.03 51 1013.9
20260508173354 59 0 3.0 9.0 0.00 0.03 0.03 51 1014.4
20260508172849 57 304 5.0 7.0 0.00 0.03 0.03 53 1014.3
20260508172347 58 340 3.0 10.0 0.00 0.03 0.03 52 1014.5
20260508171843 58 262 5.0 11.0 0.00 0.03 0.03 51 1014.3
20260508171339 58 66 1.0 5.0 0.00 0.03 0.03 52 1014.3
20260508170836 60 332 2.0 10.0 0.00 0.03 0.03 50 1014.2
20260508170334 60 92 0.0 7.0 0.00 0.03 0.03 51 1014.2
20260508165830 58 73 1.0 10.0 0.00 0.03 0.03 52 1013.9
20260508165328 58 338 2.0 2.0 0.00 0.03 0.03 51 1014.2
20260508164824 59 219 3.0 6.0 0.00 0.03 0.03 51 1014.2
20260508164320 59 347 3.0 6.0 0.00 0.03 0.03 50 1014.2
20260508163819 59 37 5.0 10.0 0.00 0.03 0.03 50 1014.4
20260508163316 59 116 5.0 8.0 0.00 0.03 0.03 50 1014.4
20260508162812 60 47 3.0 5.0 0.00 0.03 0.03 49 1014.6
20260508162309 60 176 2.0 7.0 0.00 0.03 0.03 50 1014.4
20260508161806 58 344 2.0 3.0 0.00 0.03 0.03 52 1014.6
20260508161303 58 340 2.0 7.0 0.00 0.03 0.03 50 1014.6
20260508160800 57 323 1.0 7.0 0.00 0.03 0.03 51 1014.8
20260508160259 56 341 1.0 9.0 0.00 0.03 0.03 51 1014.7
20260508155755 57 13 2.0 7.0 0.00 0.03 0.03 50 1015.0
20260508155252 58 74 1.0 3.0 0.00 0.03 0.03 49 1014.8
20260508154749 60 34 9.0 11.0 0.00 0.03 0.03 48 1014.9
20260508154247 60 326 1.0 2.0 0.00 0.03 0.03 49 1014.9
20260508153743 60 58 1.0 1.0 0.00 0.03 0.03 49 1015.0
20260508153240 59 148 1.0 3.0 0.00 0.03 0.03 49 1014.8
20260508152736 57 305 2.0 7.0 0.00 0.03 0.03 51 1014.8